Temperature
15 15 15 15 15 14 14 14 14 14 14 14 14 14 14 14 14 14 14 14 14 13 13 13 13 13 13 13 13 13 13 13 13 12 12 12 11 11 11 11 11 11 11
15 15 15 14 14 14 14 14 14 14 14 14 14 14 14 14 14 14 14 14 13 13 13 13 13 13 13 13 13 13 13 13 12 12 12 11 11 11 11 11 11 11 10
15 14 14 14 14 14 14 14 14 14 14 14 14 14 14 14 14 14 13 13 13 13 13 13 13 13 13 13 13 13 13 12 12 12 12 11 11 11 11 11 10 10 10
14 14 14 14 14 14 14 14 14 14 14 14 14 14 14 14 13 13 13 13 13 13 13 13 13 13 13 13 13 13 12 12 12 12 12 11 11 11 10 10 10 10 10
14 14 14 14 14 14 14 14 14 14 14 14 14 14 14 14 13 13 13 13 13 13 13 13 13 13 13 13 13 12 12 12 12 12 11 11 11 10 10 10 10 10 10
14 14 14 14 14 14 13 13 13 13 13 13 13 13 13 13 13 13 13 13 13 13 13 13 13 13 13 13 13 13 12 12 12 11 11 11 11 10 10 10 10 10 9
13 13 13 13 13 13 13 13 13 13 13 13 13 13 13 13 13 13 13 13 13 13 13 12 12 13 13 12 12 12 12 12 12 11 11 11 11 10 10 10 10 10 9
13 13 13 13 13 13 13 13 13 13 13 13 13 13 13 13 13 13 13 13 13 13 13 12 12 12 12 12 12 12 12 12 12 11 11 11 11 10 10 10 10 9 9
13 13 13 13 13 13 12 12 12 13 13 13 13 13 13 13 13 13 13 12 12 12 12 12 12 12 12 12 12 12 11 11 11 11 11 11 11 10 10 10 9 9 9
13 12 12 12 12 12 12 12 12 12 12 12 12 12 12 12 13 12 12 12 12 12 12 12 12 12 12 12 11 11 11 11 11 11 10 10 10 10 10 9 9 9 8
12 12 12 12 12 12 12 12 12 12 12 12 12 12 12 12 12 12 12 12 12 12 11 11 11 12 12 11 11 11 11 11 11 10 10 10 10 10 9 9 9 9 8
12 12 12 12 12 12 12 12 11 11 11 11 12 12 12 12 12 12 12 12 11 11 11 11 11 11 11 11 11 11 11 11 10 10 10 10 9 9 9 9 9 8 8
12 12 12 11 11 11 11 11 11 11 11 11 11 11 11 11 11 11 11 11 11 11 11 11 11 11 11 11 10 10 10 10 10 9 9 9 9 9 9 9 8 8 8
12 12 12 11 11 11 11 11 11 11 11 11 10 11 10 11 11 11 11 11 11 11 10 10 11 10 10 10 10 10 10 10 9 9 9 9 9 8 8 8 8 8 7
11 11 11 11 11 11 11 11 11 11 11 11 10 10 10 10 10 10 10 10 10 10 10 10 10 10 10 9 9 9 9 9 9 9 8 8 8 8 8 8 8 7 7
11 11 11 11 10 10 10 10 10 10 10 10 10 10 10 10 10 10 10 10 10 10 9 9 9 9 9 9 9 9 9 9 8 8 8 8 8 8 8 7 7 7 6
11 11 11 10 10 10 10 10 10 10 10 10 10 10 10 10 10 10 9 9 9 9 9 9 8 8 8 8 8 8 8 8 8 8 8 8 7 7 7 7 7 6 6
10 10 10 10 10 10 10 9 9 9 9 9 9 9 9 9 9 9 9 9 9 8 8 8 8 8 8 8 8 8 8 8 8 8 7 7 7 7 7 7 6 6 6
10 10 10 9 10 9 9 9 9 9 9 9 9 9 9 9 9 8 8 8 8 8 8 8 7 7 7 7 7 7 7 7 7 7 7 7 7 6 6 6 6 6 5
9 9 9 9 9 9 9 9 9 9 8 8 8 8 8 8 8 8 8 7 7 7 7 7 7 7 7 7 7 7 7 6 7 6 6 6 6 6 6 6 5 5 5
9 9 9 9 9 9 9 8 8 8 8 8 8 8 8 8 7 7 7 7 7 7 7 7 6 6 6 6 6 6 6 6 6 6 6 6 6 5 5 5 5 5 4
8 8 8 8 8 8 8 8 8 8 8 8 7 7 7 7 7 7 7 7 7 7 6 6 6 6 6 6 6 6 5 5 6 5 5 5 5 5 5 5 4 4 4
8 8 8 8 8 8 8 8 8 7 7 7 7 7 7 7 6 6 6 6 6 6 6 6 6 6 6 5 5 5 5 5 5 5 5 5 5 4 4 4 4 4 3
8 8 8 8 8 7 7 7 7 7 7 7 6 6 6 6 6 6 6 6 6 6 6 6 6 5 5 5 5 5 5 5 5 4 4 4 4 4 4 4 3 3 3
7 7 7 7 7 7 7 7 7 7 7 6 6 6 6 6 6 6 6 6 6 5 5 5 5 5 5 5 4 4 4 4 4 4 4 3 3 3 3 3 3 3 2
7 7 7 7 6 6 6 6 6 6 6 6 6 6 6 6 6 5 5 5 5 5 5 5 5 4 4 4 4 4 4 4 4 3 3 3 3 3 2 2 2 2 2
Wind_Speed
5 5 4 4 4 4 3 3 3 3 3 3 3 3 3 3 3 3 2 2 2 2 2 2 2 2 2 2 2 2 1 2 2 1 2 2 2 2 3 2 2 2 4
5 5 4 4 4 4 3 3 3 3 3 3 3 4 3 3 3 3 3 3 3 2 2 2 3 2 3 2 2 2 2 2 2 2 2 2 2 2 2 2 1 2 2
5 5 5 4 4 4 3 3 3 3 3 3 3 4 4 3 3 3 3 3 3 3 2 3 3 3 3 3 3 2 2 2 2 3 2 2 2 2 2 1 1 1 1
5 5 4 4 4 4 3 3 3 3 3 3 3 3 3 3 3 3 3 3 3 2 2 2 2 3 3 3 3 3 3 3 3 3 3 2 2 2 2 2 2 2 1
6 6 5 4 4 3 3 3 3 3 2 2 2 3 3 2 2 2 3 3 3 2 2 2 1 1 1 1 2 3 4 3 3 3 3 2 2 2 3 3 2 2 1
6 6 5 4 4 4 4 4 4 3 3 3 3 3 3 2 2 1 2 3 3 3 3 3 2 3 3 3 2 1 1 4 4 4 3 3 4 3 3 3 3 3 2
6 6 5 5 5 4 4 4 4 4 3 3 3 2 3 3 4 4 3 3 3 3 3 3 2 2 3 3 5 5 3 2 3 4 4 4 3 3 3 4 4 3 2
6 6 6 6 5 5 4 4 4 4 3 3 3 3 2 2 4 4 4 5 4 4 4 4 4 4 3 3 4 3 3 3 4 4 4 3 3 2 3 3 2 2 2
6 6 6 6 6 6 5 5 4 3 3 3 3 4 4 3 4 4 4 4 4 4 4 4 4 4 4 3 4 3 3 3 3 3 1 1 2 1 2 2 3 3 3
7 6 6 6 6 6 6 5 4 4 4 3 3 4 4 4 4 5 5 4 5 4 4 5 4 4 5 5 5 4 4 3 3 4 4 4 4 4 5 5 4 4 4
6 6 6 6 6 6 5 5 5 4 4 4 3 3 3 3 4 5 6 4 5 5 5 5 4 6 6 6 6 5 3 3 3 4 3 3 3 3 4 5 4 4 4
6 6 6 6 6 5 5 5 5 5 4 4 4 4 3 3 3 5 6 5 5 5 5 4 3 6 6 6 5 3 3 3 3 3 3 3 3 3 3 4 4 5 4
6 6 6 7 6 6 6 6 5 5 5 5 4 4 4 3 3 4 6 6 6 5 4 1 2 5 5 5 5 5 5 4 4 4 4 4 3 3 3 3 4 4 4
7 7 6 6 6 6 5 5 5 5 6 6 5 5 4 4 3 3 4 4 5 5 4 3 5 5 5 3 4 5 5 4 4 4 4 3 3 3 3 3 3 4 4
7 7 7 7 6 6 6 5 6 6 6 6 6 5 5 5 4 4 4 4 4 4 4 3 4 4 4 4 4 4 5 5 5 4 4 4 3 4 3 3 4 4 4
7 7 6 6 6 6 5 4 3 4 4 5 5 6 5 4 3 5 5 4 3 4 5 5 5 5 5 5 5 5 5 5 5 5 5 4 4 4 4 4 4 5 5
7 7 6 6 6 6 6 6 5 3 4 6 6 6 6 4 4 6 6 5 5 6 5 5 5 5 5 5 5 5 5 5 5 5 5 5 4 4 4 4 5 5 5
7 6 6 6 6 6 6 6 6 5 5 4 5 6 6 5 6 6 6 5 4 6 6 6 6 5 5 5 5 5 5 4 5 5 5 5 5 4 4 5 5 5 5
6 5 6 6 6 6 6 6 6 6 6 5 4 4 5 5 5 6 7 5 6 6 6 6 6 5 5 5 5 5 5 5 5 5 5 5 5 5 5 5 5 5 5
5 5 5 5 5 6 6 6 6 6 6 5 5 4 3 4 4 5 6 6 6 6 6 6 6 5 5 5 4 4 4 4 5 5 4 4 5 5 5 6 5 5 5
4 5 6 5 5 6 6 6 6 5 5 5 5 5 5 5 6 6 6 6 6 6 6 6 5 5 5 4 4 5 5 5 4 5 5 5 5 4 5 5 5 5 5
4 4 5 5 5 6 6 6 6 6 6 6 5 5 6 6 6 6 6 6 6 5 5 5 5 4 4 4 4 5 5 5 5 5 5 5 5 5 5 5 5 5 5
4 5 5 5 5 5 5 5 6 6 6 6 5 5 5 6 6 6 6 5 5 5 5 4 4 4 4 4 5 5 5 6 5 5 5 5 5 5 5 6 6 6 6
4 5 5 5 5 5 6 6 6 6 6 6 5 5 5 5 5 6 5 5 4 5 4 4 5 5 6 5 5 5 6 6 6 6 7 6 5 5 5 5 6 7 7
4 5 5 5 5 5 6 6 6 6 5 5 5 5 5 5 5 5 5 5 5 5 5 5 5 6 7 7 6 6 6 5 5 5 6 5 6 6 6 6 5 6 6
4 4 5 5 5 5 5 5 6 6 5 5 5 5 5 5 5 5 5 5 5 5 5 5 6 7 7 7 7 7 6 6 6 6 6 5 5 5 6 5 7 6 6
Wind_Direction
182 178 176 181 191 193 194 199 207 202 195 199 195 196 194 195 191 185 206 207 221 219 211 209 205 203 199 193 189 204 213 215 185 158 136 134 137 133 125 132 119 119 108
182 179 179 181 184 190 192 200 199 194 198 206 203 201 199 202 206 203 202 207 217 228 227 218 211 193 201 194 191 198 198 201 185 175 172 148 150 142 134 136 140 124 113
179 184 181 184 190 194 197 200 202 196 197 204 202 201 206 210 212 214 213 213 217 227 228 226 214 198 197 189 197 198 192 180 176 182 174 158 172 156 157 166 166 152 143
180 185 190 193 196 201 198 196 196 192 200 209 205 201 205 208 211 208 213 216 221 220 214 217 214 202 209 199 199 201 189 178 178 186 183 178 174 167 190 194 187 171 181
182 187 194 195 191 193 191 194 192 186 198 200 203 204 200 205 211 219 210 213 219 217 211 213 202 154 61 192 202 196 188 189 187 191 190 186 189 189 206 207 207 195 183
189 192 191 192 187 190 193 192 187 187 191 180 196 197 190 187 134 170 233 215 217 221 223 215 192 176 160 153 125 125 201 201 199 196 205 210 215 215 217 214 211 213 227
194 190 189 192 191 191 187 186 189 191 186 182 191 196 199 171 150 173 212 224 230 233 228 215 203 189 192 187 168 171 177 218 247 227 218 225 224 219 208 210 214 231 256
195 191 189 191 193 191 187 190 197 201 195 196 198 194 203 181 159 180 207 222 226 230 227 221 208 195 185 192 181 181 191 193 212 224 227 236 236 228 216 233 236 227 244
199 199 196 193 194 194 194 197 201 204 203 205 204 205 208 200 171 177 208 221 225 226 226 222 219 207 153 186 200 197 202 195 163 179 264 38 64 105 217 209 205 213 237
207 208 203 199 199 200 202 203 203 205 212 213 211 220 221 219 177 182 212 221 226 226 226 221 209 216 177 191 210 212 218 214 198 183 190 197 201 191 199 220 224 229 245
209 208 206 203 205 205 205 204 204 208 211 216 219 223 227 227 190 189 209 226 230 231 229 225 213 183 197 207 232 231 218 229 224 215 206 202 202 199 198 215 231 240 247
207 206 208 207 207 205 204 207 208 209 213 220 226 226 228 223 218 202 203 225 248 237 236 233 202 165 187 202 219 205 185 213 223 221 222 220 218 217 218 218 224 233 248
202 206 209 209 208 205 204 206 209 211 222 231 232 233 232 230 216 198 208 217 228 238 239 212 167 171 189 204 200 194 198 215 216 222 230 235 235 232 221 214 217 219 230
206 209 213 213 213 210 206 208 214 218 224 230 236 239 236 232 231 220 219 217 215 225 230 192 180 186 207 215 194 200 215 219 224 232 237 236 225 217 215 213 214 213 221
212 211 213 213 213 215 212 213 218 222 226 228 233 237 235 237 236 232 229 228 226 221 214 216 213 206 210 212 216 216 215 213 218 229 232 229 223 221 222 218 220 223 232
215 213 212 211 212 214 215 218 217 226 219 231 246 249 246 254 221 211 222 223 209 192 201 216 219 220 223 225 223 221 219 221 223 223 226 227 228 229 226 217 220 230 238
219 217 211 212 213 215 217 219 225 223 212 221 228 238 245 234 214 210 208 200 192 185 212 225 227 227 229 230 230 231 230 228 224 223 226 228 228 229 230 228 226 232 240
223 223 218 216 216 217 218 223 227 230 236 242 227 221 225 218 213 210 198 188 203 203 225 231 233 233 233 233 233 234 235 233 228 228 227 228 230 230 230 234 234 233 237
226 224 221 219 215 215 219 223 226 229 234 238 237 221 209 210 206 204 192 214 222 223 227 232 236 235 234 235 237 237 235 232 230 228 230 227 227 227 232 234 236 232 238
225 223 221 220 217 215 218 222 225 227 231 234 235 233 211 209 222 214 214 227 232 233 232 233 234 235 234 233 232 232 236 237 236 235 234 234 233 231 234 237 238 238 240
229 221 214 220 221 220 221 224 227 228 230 234 238 225 203 220 228 226 226 230 234 236 236 234 233 232 232 231 231 229 231 236 236 236 235 234 233 235 236 236 236 240 243
227 223 219 221 224 223 222 224 228 231 234 237 242 225 202 223 231 231 231 233 234 239 240 236 232 227 224 226 228 230 232 236 236 235 235 235 235 236 238 236 234 236 239
232 227 221 221 222 218 219 225 229 232 235 236 238 236 226 230 233 235 236 236 234 236 236 231 230 230 227 227 229 232 236 235 233 233 236 234 233 233 233 232 236 241 240
236 230 225 223 222 224 225 227 229 232 234 235 237 237 235 233 236 236 237 236 233 234 231 227 226 229 229 231 233 236 242 245 244 238 236 237 237 238 238 238 238 240 243
238 233 230 228 225 226 227 228 230 231 233 235 236 236 237 235 234 232 231 229 230 230 231 232 231 231 231 232 234 236 231 232 240 246 240 239 239 239 241 241 241 245 243
244 238 235 232 229 227 227 228 230 231 232 232 233 234 235 236 237 237 233 228 228 231 234 237 237 236 236 238 237 234 229 228 230 235 239 239 239 240 242 244 242 242 243
Height
1535 1537 1538 1539 1540 1541 1543 1544 1545 1546 1546 1547 1547 1548 1548 1548 1548 1547 1547 1547 1547 1547 1547 1547 1546 1546 1546 1546 1546 1546 1546 1547 1546 1547 1547 1546 1546 1546 1546 1546 1546 1545 1545
1533 1535 1536 1537 1538 1540 1541 1542 1543 1544 1545 1545 1546 1546 1547 1546 1547 1547 1546 1546 1546 1546 1546 1546 1546 1545 1545 1545 1545 1545 1545 1545 1546 1546 1546 1546 1546 1546 1545 1545 1545 1545 1545
1531 1533 1534 1536 1537 1538 1539 1540 1541 1542 1543 1543 1544 1545 1545 1545 1545 1545 1545 1545 1545 1545 1544 1544 1544 1544 1544 1544 1544 1544 1544 1544 1544 1544 1545 1545 1545 1545 1545 1545 1545 1544 1544
1529 1530 1532 1533 1534 1536 1537 1538 1539 1540 1541 1541 1542 1542 1543 1543 1543 1543 1543 1543 1543 1543 1543 1543 1543 1543 1543 1543 1543 1543 1543 1543 1543 1543 1543 1544 1544 1543 1544 1544 1544 1543 1543
1526 1528 1529 1531 1532 1533 1534 1535 1536 1537 1538 1539 1540 1540 1541 1541 1541 1541 1542 1541 1541 1541 1541 1541 1541 1541 1541 1541 1541 1541 1541 1541 1542 1542 1542 1542 1543 1542 1543 1543 1543 1543 1542
1524 1525 1527 1529 1530 1531 1532 1533 1534 1535 1536 1537 1537 1538 1538 1538 1539 1539 1539 1540 1540 1540 1539 1539 1539 1539 1539 1539 1539 1539 1540 1540 1540 1540 1541 1541 1541 1541 1541 1541 1541 1541 1541
1522 1523 1524 1526 1527 1528 1530 1531 1532 1533 1534 1534 1535 1535 1536 1536 1536 1537 1537 1537 1537 1538 1538 1538 1537 1537 1537 1538 1538 1538 1538 1538 1538 1539 1539 1539 1539 1539 1539 1539 1539 1539 1539
1519 1520 1522 1523 1524 1526 1527 1528 1529 1530 1531 1532 1532 1533 1533 1534 1534 1534 1535 1535 1535 1535 1535 1535 1535 1535 1535 1536 1536 1536 1536 1535 1536 1536 1536 1536 1536 1536 1536 1537 1537 1536 1536
1516 1517 1519 1520 1521 1523 1524 1525 1526 1528 1528 1529 1529 1530 1530 1531 1531 1532 1532 1532 1533 1532 1533 1533 1533 1533 1533 1533 1534 1533 1533 1533 1533 1533 1533 1533 1533 1533 1533 1534 1534 1534 1534
1513 1515 1516 1517 1518 1520 1521 1522 1524 1525 1525 1526 1526 1527 1527 1528 1528 1529 1529 1529 1530 1530 1530 1530 1530 1530 1530 1530 1531 1531 1531 1531 1531 1530 1530 1530 1530 1530 1530 1530 1531 1531 1531
1511 1512 1513 1514 1515 1517 1518 1519 1521 1522 1522 1523 1523 1524 1524 1524 1524 1525 1525 1526 1526 1527 1527 1527 1527 1527 1527 1527 1528 1528 1528 1528 1528 1528 1528 1528 1527 1527 1527 1527 1527 1527 1528
1507 1509 1509 1511 1512 1513 1514 1516 1517 1518 1519 1519 1520 1520 1520 1521 1521 1521 1521 1522 1523 1523 1523 1524 1523 1523 1524 1524 1524 1524 1525 1525 1525 1525 1525 1524 1524 1524 1524 1524 1523 1523 1523
1504 1505 1506 1508 1509 1509 1510 1512 1513 1514 1515 1516 1516 1516 1516 1517 1517 1517 1517 1518 1518 1519 1519 1519 1520 1520 1520 1520 1520 1521 1521 1521 1521 1521 1521 1521 1521 1520 1520 1520 1519 1519 1519
1500 1501 1502 1504 1504 1505 1506 1507 1508 1510 1511 1512 1512 1512 1512 1512 1513 1513 1513 1513 1514 1515 1515 1515 1516 1516 1516 1516 1516 1517 1517 1517 1517 1517 1517 1517 1517 1516 1516 1516 1516 1515 1515
1496 1497 1498 1499 1500 1501 1502 1503 1504 1505 1507 1507 1507 1508 1508 1508 1509 1509 1509 1509 1510 1510 1510 1511 1511 1512 1512 1512 1512 1512 1513 1513 1513 1513 1513 1513 1513 1512 1512 1512 1512 1512 1512
1492 1493 1494 1495 1496 1497 1498 1499 1500 1501 1502 1502 1503 1503 1503 1504 1504 1505 1505 1506 1506 1506 1506 1506 1506 1507 1507 1508 1508 1508 1508 1509 1509 1509 1509 1509 1509 1509 1508 1508 1508 1508 1507
1488 1489 1490 1490 1492 1493 1494 1495 1496 1497 1497 1497 1498 1498 1499 1499 1500 1500 1500 1501 1501 1501 1501 1501 1502 1502 1503 1503 1503 1503 1504 1504 1504 1504 1504 1504 1504 1504 1504 1504 1504 1503 1503
1483 1484 1485 1486 1487 1488 1489 1490 1491 1492 1492 1492 1493 1493 1494 1494 1495 1495 1495 1495 1495 1495 1496 1496 1497 1497 1497 1498 1498 1498 1499 1499 1499 1499 1499 1499 1500 1500 1499 1499 1499 1499 1498
1479 1479 1480 1481 1482 1483 1485 1486 1486 1487 1487 1488 1488 1488 1488 1489 1489 1489 1490 1490 1489 1489 1490 1491 1492 1492 1492 1493 1493 1493 1494 1494 1494 1494 1494 1494 1494 1494 1494 1494 1494 1494 1493
1474 1475 1476 1476 1477 1479 1480 1481 1481 1482 1482 1482 1482 1483 1483 1483 1483 1483 1483 1484 1484 1484 1485 1486 1486 1487 1487 1488 1488 1488 1489 1489 1489 1489 1489 1489 1489 1489 1489 1489 1489 1489 1488
1470 1470 1471 1472 1473 1474 1475 1476 1476 1477 1477 1477 1477 1478 1478 1478 1478 1478 1478 1479 1479 1479 1480 1480 1481 1481 1482 1482 1482 1483 1483 1483 1484 1484 1484 1484 1484 1484 1484 1484 1484 1484 1483
1465 1466 1466 1467 1468 1469 1470 1471 1472 1472 1472 1472 1472 1473 1473 1473 1473 1473 1473 1473 1474 1474 1474 1475 1475 1475 1476 1477 1477 1477 1477 1478 1478 1478 1479 1479 1479 1479 1479 1479 1479 1479 1478
1461 1461 1462 1462 1463 1464 1465 1466 1466 1467 1467 1467 1467 1467 1467 1468 1468 1468 1468 1468 1468 1469 1469 1469 1470 1470 1470 1471 1472 1472 1472 1472 1473 1473 1473 1473 1474 1474 1474 1474 1474 1474 1473
1456 1457 1457 1458 1458 1459 1460 1461 1461 1462 1462 1462 1463 1462 1462 1462 1462 1463 1463 1463 1463 1463 1463 1464 1464 1465 1465 1466 1466 1466 1467 1467 1467 1468 1468 1468 1468 1468 1468 1468 1468 1468 1468
1452 1452 1453 1453 1454 1454 1455 1455 1456 1456 1457 1457 1457 1457 1457 1457 1457 1457 1458 1458 1458 1458 1458 1459 1459 1459 1460 1460 1460 1461 1461 1461 1462 1462 1462 1462 1463 1463 1463 1463 1463 1463 1463
1447 1448 1448 1448 1449 1450 1450 1450 1451 1451 1452 1452 1452 1452 1453 1452 1452 1453 1453 1453 1453 1453 1453 1454 1454 1454 1454 1454 1455 1455 1455 1456 1456 1456 1456 1457 1457 1457 1457 1457 1457 1458 1458